Regional Weather Roundup
Issued by NWS Albany, NY

Home | Current Version | Previous Version | Text Only | Print | Product List | Glossary On
Versions: 1 2 3 4 5 6 7 8 9 10 11 12 13 14 15 16 17 18 19 20 21 22 23 24 25 26 27
000
ASUS41 KALY 220510
RWRALY

NEW YORK STATE HOURLY WEATHER ROUNDUP
NATIONAL WEATHER SERVICE ALBANY NY
1200 AM EST THU FEB 22 2018

NOTE: "FAIR" INDICATES FEW OR NO CLOUDS BELOW 12,000 FEET WITH NO
SIGNIFICANT WEATHER AND/OR NO OBSTRUCTIONS TO VISIBILITY.

NYZ032-033-038>043-046>054-057>066-NYZ062>081-082-084-220600-
EAST


CITY           SKY/WX    TMP DP  RH WIND       PRES   REMARKS
ALBANY         CLOUDY    40  33  76 NW9       30.53R WCI  34
GLENS FALLS    CLOUDY    39  25  57 N13G20    30.53R WCI  31
POUGHKEEPSIE   CLOUDY    50  34  54 N9        30.45R
NEWBURGH       CLOUDY    52  39  62 VRB5      30.45R
MONTGOMERY     CLOUDY    52  37  56 N6        30.43R
WHITE PLAINS   CLOUDY    56  37  49 N8        30.40R
ISLIP          CLOUDY    55  49  80 N6        30.39R
NEW YORK CITY  CLOUDY    58  46  64 N9G21     30.39R
CENTRAL PARK   CLOUDY    59  47  64 VRB5      30.43R
$$

NYZ005>009-017-018-044>046-055-056-220600-
CENTRAL


CITY           SKY/WX    TMP DP  RH WIND       PRES   REMARKS
FULTON         FAIR      33  32  96 W5        30.60R WCI  29
SYRACUSE       CLOUDY    34  29  82 W8        30.60R WCI  27
ROME           CLOUDY    35  32  88 W6        30.60R WCI  30
ELMIRA         CLOUDY    38  28  67 N6        30.56R WCI  33
BINGHAMTON     CLOUDY    32  28  85 N9        30.52R WCI  24
MONTICELLO     MOCLDY    39  32  76 NW10      30.48R WCI  32
$$

NYZ026>034-041>043-087-220600-
NORTH


CITY           SKY/WX    TMP DP  RH WIND       PRES   REMARKS
WATERTOWN      CLOUDY    35  34  96 N6        30.60R WCI  30
FORT DRUM      NOT AVBL
OGDENSBURG     CLOUDY    30  25  81 CALM      30.63R
MASSENA        FAIR      27  25  92 CALM      30.63R
SARANAC LAKE   FAIR      27  23  85 CALM      30.51R
PLATTSBURGH    FAIR      33  20  58 NW7       30.58R WCI  27
$$

NYZ001>004-010>016-019>021-085-220600-
WEST


CITY           SKY/WX    TMP DP  RH WIND       PRES   REMARKS
NIAGARA FALLS  FAIR      34  26  72 N8        30.63R WCI  27
BUFFALO        CLOUDY    33  26  75 N8        30.62R WCI  26
DUNKIRK        CLOUDY    34  30  85 NW3       30.62R
JAMESTOWN        N/A    N/A N/A N/A MISG        N/A
WELLSVILLE     CLOUDY    34  28  79 N6        30.53R WCI  29
ROCHESTER      MOCLDY    33  27  78 N7        30.62R WCI  27
PENN YAN       CLOUDY    35  23  61 N6        30.58R WCI  30
$$

             KEY
       WCI = WIND CHILL INDEX
       VSB = VISIBILITY
       HX  = HEAT INDEX
$$




USA.gov is the U.S. government's official web portal to all federal, state and local government web resources and services.